International Falls, MN

12:47 PM CDT on April 21, 2018 (GMT -0500)
Falls International

Weather History for KINL - April, 2014

Change the Weather History Date:

Sunday, April 27, 2014

  Actual Average Record
Temperature  
Mean Temperature 39 °F 45 °F  
Max Temperature 48 °F 58 °F 93 °F (1952)
Min Temperature 30 °F 32 °F 12 °F (1956)
Degree Days  
Heating Degree Days 26 20  
Month to date heating degree days 834 713  
Since 1 July heating degree days 10871 9579  
Cooling Degree Days 0 0  
Month to date cooling degree days 0 0  
Year to date cooling degree days 0 0  
Moisture  
Dew Point 20 °F    
Average Humidity 49    
Maximum Humidity 63    
Minimum Humidity 34    
Precipitation  
Precipitation T in 0.07 in 0.81 in (1986)
Month to date precipitation 1.29 1.32  
Year to date precipitation 4.50 3.46  
Snow  
Snow 0.00 in 0.10 in 2.80 in (1966)
Month to date snowfall 7.2 6.1  
Since 1 July snowfall 101.2 70.5  
Snow Depth 0.00 in    
Sea Level Pressure  
Sea Level Pressure 30.06 in    
Wind  
Wind Speed 18 mph (ESE)    
Max Wind Speed 31 mph    
Max Gust Speed 40 mph    
Visibility 10 miles    
Events Rain    
T = Trace of Precipitation, MM = Missing Value Source: NWS Daily Summary

Daily Weather History Graph

Daily Weather History Graph

Search for Another Location

Airport or City:

Astronomy

Apr. 27, 2014 Rise Set
Actual Time 6:00 AM CDT 8:22 PM CDT
Civil Twilight 5:26 AM CDT 8:57 PM CDT
Nautical Twilight 4:42 AM CDT 9:41 PM CDT
Astronomical Twilight 3:53 AM CDT 10:31 PM CDT
Moon 5:11 AM CDT (4/27) 6:50 PM CDT (4/27)
Length of Visible Light 15h 31m
Length of Day
14h 21m
Waning Crescent, 3% of the Moon is Illuminated
Apr 27
Waning Crescent
Apr 29
New
May 6
First Quarter
May 14
Full
May 21
Last Quarter

Hourly Weather History & Observations

Time (CDT) Temp. Windchill Dew Point Humidity Pressure Visibility Wind Dir Wind Speed Gust Speed Precip Events Conditions
12:55 AM 34.0 °F 26.6 °F 21.0 °F 59% 30.15 in 10.0 mi ESE 9.2 mph - N/A   Clear
1:55 AM 33.1 °F 25.5 °F 21.0 °F 61% 30.14 in 10.0 mi ESE 9.2 mph - N/A   Clear
2:55 AM 32.0 °F 23.0 °F 21.0 °F 64% 30.11 in 10.0 mi East 11.5 mph - N/A   Clear
3:55 AM 32.0 °F 23.0 °F 19.9 °F 61% 30.09 in 10.0 mi East 11.5 mph - N/A   Clear
4:55 AM 30.9 °F 21.2 °F 19.9 °F 64% 30.07 in 10.0 mi East 12.7 mph - N/A   Clear
5:55 AM 30.0 °F 21.1 °F 19.9 °F 66% 30.09 in 10.0 mi East 10.4 mph - N/A   Clear
6:55 AM 30.9 °F 20.2 °F 18.0 °F 59% 30.12 in 10.0 mi East 15.0 mph - N/A   Clear
7:55 AM 33.1 °F 22.6 °F 18.0 °F 54% 30.12 in 10.0 mi East 16.1 mph 20.7 mph N/A   Clear
8:55 AM 35.1 °F 25.9 °F 18.0 °F 50% 30.12 in 10.0 mi East 13.8 mph 24.2 mph N/A   Clear
9:55 AM 37.0 °F 26.2 °F 19.0 °F 48% 30.09 in 10.0 mi ESE 21.9 mph 28.8 mph N/A   Clear
10:55 AM 39.0 °F 29.3 °F 19.0 °F 45% 30.09 in 10.0 mi ESE 19.6 mph 27.6 mph N/A   Mostly Cloudy
11:55 AM 41.0 °F 32.2 °F 21.0 °F 45% 30.09 in 10.0 mi ESE 18.4 mph 28.8 mph N/A   Overcast
12:55 PM 44.1 °F 35.0 °F 21.0 °F 40% 30.05 in 10.0 mi ESE 24.2 mph 33.4 mph N/A   Overcast
1:55 PM 46.0 °F 37.2 °F 21.9 °F 39% 30.04 in 10.0 mi East 26.5 mph 35.7 mph N/A   Mostly Cloudy
2:55 PM 46.4 °F 38.7 °F 21.2 °F 37% 29.99 in 10.0 mi ESE 20.7 mph 31.1 mph N/A   Overcast
3:55 PM 48.0 °F - 21.0 °F 34% 30.02 in 10.0 mi ESE 19.6 mph 33.4 mph N/A   Overcast
4:55 PM 45.0 °F 38.5 °F 21.0 °F 39% 30.01 in 10.0 mi East 13.8 mph 28.8 mph N/A   Overcast
5:55 PM 45.0 °F 37.4 °F 19.9 °F 37% 30.01 in 10.0 mi ESE 18.4 mph 32.2 mph N/A   Overcast
6:55 PM 44.1 °F 35.2 °F 19.9 °F 38% 30.00 in 10.0 mi East 23.0 mph 34.5 mph N/A   Overcast
7:55 PM 42.1 °F 33.3 °F 19.9 °F 41% 30.02 in 10.0 mi East 19.6 mph 26.5 mph N/A   Overcast
8:55 PM 41.0 °F 32.8 °F 17.1 °F 38% 30.03 in 10.0 mi East 16.1 mph 31.1 mph N/A   Overcast
9:55 PM 39.9 °F 29.5 °F 18.0 °F 41% 30.03 in 10.0 mi East 24.2 mph 34.5 mph N/A   Overcast
10:55 PM 39.0 °F 29.0 °F 18.0 °F 43% 30.00 in 10.0 mi East 20.7 mph 32.2 mph N/A   Overcast
11:55 PM 39.9 °F 30.2 °F 21.0 °F 47% 29.97 in 10.0 mi East 20.7 mph 33.4 mph 0.00 in Rain Light Rain